GEFSMA_con_prob3kmehi_228.txt.gz
EHI
4 5 6 5 3 1 1 1 2 3 3 3 2 1 2 3 3 3 2 3 2 2 4 5 4 2 2 1 1 2 4 4 4 3 3 3 3 3 3 3 3 3 3
4 5 6 6 5 3 2 2 3 3 4 3 2 2 3 3 3 3 3 2 2 3 4 5 4 4 4 3 2 2 3 4 4 3 3 3 3 3 3 3 3 2 2
4 5 6 6 6 5 3 3 3 4 4 3 2 3 3 3 3 3 3 3 3 4 4 4 4 5 5 4 3 3 3 4 4 4 3 3 3 3 3 3 2 1 2
4 5 5 5 5 5 4 3 3 4 4 4 3 3 3 3 3 3 4 4 4 4 4 4 5 5 4 2 2 3 3 3 3 3 3 2 3 3 3 3 2 1 1
4 4 4 4 4 4 3 3 2 3 4 3 3 3 3 3 3 3 3 4 5 4 4 5 6 6 4 3 3 3 3 3 3 2 1 1 1 3 3 3 2 1 0
4 4 3 3 3 3 3 3 3 3 3 3 3 3 3 3 3 4 3 3 4 4 4 5 6 6 6 6 7 7 5 4 4 4 3 2 2 2 3 2 1 0 0
6 5 5 4 4 4 4 4 4 4 3 3 3 3 3 3 3 4 3 3 3 4 4 4 4 5 7 8 8 8 7 6 7 6 5 5 4 3 3 1 0 0 0
8 7 7 6 5 5 6 6 6 5 4 3 4 3 3 3 3 3 3 3 4 4 4 3 4 5 6 7 6 7 6 6 6 6 5 5 5 4 4 2 1 0 0
10 8 7 7 6 6 7 8 7 6 4 4 5 4 3 2 3 3 3 3 3 4 3 3 3 4 5 6 6 5 4 3 3 3 3 3 2 4 5 4 2 1 1
11 9 7 7 7 7 8 8 7 7 6 5 6 6 4 3 4 3 3 3 3 3 3 2 2 3 4 7 8 4 1 1 1 2 3 2 1 3 4 4 3 3 2
10 9 8 9 9 9 9 8 8 8 7 6 7 7 7 6 4 3 3 3 3 3 3 3 4 4 4 6 8 4 0 0 0 2 2 1 1 2 3 3 3 3 3
10 9 9 10 10 10 9 9 9 7 6 6 6 6 6 6 5 4 3 3 3 3 3 3 4 5 5 7 7 4 0 0 0 1 1 1 1 1 2 3 2 3 3
9 10 10 11 11 10 10 9 8 7 5 4 4 5 5 5 5 3 2 2 2 2 2 3 4 6 8 9 8 3 0 0 0 0 0 0 0 0 1 2 3 2 2
10 11 13 13 12 11 10 9 8 7 7 5 3 4 4 3 3 3 2 2 2 1 1 2 4 6 9 10 7 3 0 0 0 0 0 0 0 0 1 2 2 1 1
11 12 13 13 12 11 9 9 9 9 8 7 5 5 5 4 3 4 4 4 3 2 1 2 3 5 6 7 4 2 0 0 0 0 0 0 0 0 0 1 1 0 0
14 14 15 14 12 10 9 9 9 9 9 8 7 7 7 5 4 4 5 5 4 3 2 2 3 3 2 2 2 1 0 0 0 0 0 0 0 0 0 0 0 0 0
17 17 17 16 14 11 10 10 10 10 10 9 8 8 8 6 5 4 4 4 3 4 4 3 2 1 1 1 1 1 1 1 0 0 0 0 0 0 0 0 0 0 0
19 19 19 18 16 14 12 11 11 11 11 9 8 8 7 6 5 4 4 4 3 4 5 4 2 2 2 2 2 2 1 0 0 0 0 0 0 0 0 0 0 0 0
19 18 17 16 16 15 14 13 13 12 9 8 8 9 9 7 6 5 5 4 4 4 4 4 3 4 4 3 3 2 2 2 1 0 0 0 0 0 0 0 0 0 0
14 13 12 12 14 14 14 15 15 13 9 7 8 9 8 6 4 5 5 4 4 3 3 3 3 4 5 5 5 4 5 5 4 1 0 0 0 0 0 0 0 0 0
9 9 8 8 10 9 10 12 13 12 10 10 9 8 6 4 3 3 3 3 3 3 3 3 3 4 6 7 6 6 6 6 3 1 1 0 0 0 0 0 0 0 0
11 10 8 8 8 6 5 5 7 9 10 11 10 7 4 4 3 1 1 1 2 3 3 3 3 4 5 6 6 6 6 4 2 0 0 0 0 0 0 0 0 0 0
18 16 12 9 8 5 2 1 2 4 7 10 9 6 5 4 3 2 1 0 0 1 1 2 3 3 4 4 5 5 4 3 1 0 0 0 0 0 0 0 0 0 0
22 19 14 10 7 5 2 1 1 3 7 9 9 7 6 5 3 3 2 1 1 0 0 1 2 3 3 3 4 4 3 3 2 1 0 0 0 0 0 0 0 0 0
20 17 13 10 6 4 3 1 1 4 7 10 10 8 6 4 3 3 3 3 2 1 0 0 1 2 2 1 2 4 4 3 3 2 1 0 0 0 0 0 0 0 0
18 15 12 9 6 5 3 1 1 4 7 10 11 8 5 4 3 2 3 3 3 2 1 1 1 2 1 1 1 3 4 3 3 3 2 1 0 0 0 0 0 0 0

GEFSMA_con_prob3kmehi_234.txt.gz
EHI
2 2 2 2 1 1 1 2 1 1 2 3 3 1 1 1 1 1 5 11 14 14 14 12 9 5 2 1 2 2 1 1 1 0 0 0 0 0 0 0 0 0 0
2 2 2 1 1 2 2 2 2 2 3 3 2 1 1 1 1 4 7 9 12 14 14 13 10 6 3 2 2 1 0 0 0 0 0 0 0 0 0 0 0 0 0
2 1 1 1 1 3 4 4 5 5 4 2 1 1 2 1 2 5 8 8 8 9 11 13 12 9 5 4 3 2 1 1 1 1 1 0 0 0 0 0 0 0 0
4 2 2 3 4 3 4 4 5 7 4 1 1 3 4 4 3 4 6 7 5 5 6 11 14 13 9 7 6 5 4 3 3 3 2 1 0 0 0 0 0 0 0
7 7 7 8 7 5 4 3 4 5 4 2 2 5 7 7 6 4 4 4 5 5 5 9 13 14 11 9 9 9 8 7 6 6 5 3 2 1 0 0 0 0 0
10 10 10 10 7 6 6 4 4 5 5 4 3 4 7 8 7 6 4 3 5 8 8 11 14 14 12 10 10 10 10 10 9 8 8 7 5 3 1 0 0 0 0
12 11 9 8 6 6 6 5 4 5 6 5 3 3 4 6 6 5 4 4 5 8 10 14 18 17 13 10 9 10 11 11 11 10 9 7 6 5 3 1 0 0 0
16 14 11 9 7 6 7 8 6 5 4 4 3 2 2 3 4 4 4 4 5 7 10 13 18 19 15 10 8 8 9 12 12 10 8 7 5 5 4 3 1 0 0
18 16 14 12 10 10 11 10 9 6 2 1 2 1 1 2 3 3 2 2 4 7 8 10 13 16 16 12 9 7 9 11 12 11 9 7 7 6 5 3 2 1 1
20 19 17 15 14 13 12 11 9 6 2 1 2 3 2 2 2 2 2 2 2 5 7 8 9 11 14 14 11 9 8 9 10 10 10 8 8 7 6 4 3 2 2
24 23 21 17 15 13 11 9 8 5 3 1 2 2 3 2 2 2 2 3 3 3 4 5 5 8 13 15 13 9 6 6 7 8 8 8 7 7 6 4 2 2 3
25 24 22 19 15 12 10 8 7 6 3 3 3 3 3 3 2 3 3 4 4 3 3 2 3 7 14 16 12 6 3 3 3 4 5 5 5 6 5 4 3 3 3
20 21 22 22 19 14 12 10 10 9 7 6 5 5 4 2 2 3 3 3 4 4 3 2 3 8 13 14 11 5 1 1 1 1 1 2 3 3 3 3 3 3 3
19 20 23 24 21 17 14 13 13 14 13 11 8 7 7 5 4 4 4 4 4 4 4 3 4 7 10 11 8 3 1 0 0 0 0 0 1 1 1 2 2 2 1
22 23 23 21 19 17 16 15 16 16 17 15 12 11 10 9 7 6 6 5 4 4 4 3 3 5 6 6 3 2 2 1 0 0 0 0 0 0 0 1 1 1 0
23 22 21 19 18 18 17 16 17 18 18 18 17 14 12 10 9 8 8 6 5 5 4 3 2 2 2 1 1 3 3 1 0 0 0 0 0 0 0 0 0 0 0
18 18 16 16 17 18 19 19 18 18 18 18 17 14 11 11 10 9 7 6 5 4 4 3 3 2 1 0 1 4 4 2 0 0 0 0 0 0 0 0 0 0 0
13 12 12 13 14 17 19 20 19 18 18 18 17 14 12 12 12 11 9 6 4 4 4 4 4 4 2 1 3 4 4 2 1 0 0 0 0 0 0 0 0 0 0
12 11 12 12 13 15 17 17 17 18 18 18 17 16 14 13 13 14 12 8 5 4 4 4 4 5 3 3 3 4 3 3 2 1 0 0 0 0 0 0 0 0 0
13 13 13 13 12 12 13 15 16 17 17 16 15 15 13 12 11 11 11 10 8 5 4 3 4 5 4 3 3 3 3 3 3 2 1 0 0 0 0 0 0 0 0
15 16 16 14 11 9 9 12 15 15 14 13 11 10 8 7 6 6 8 8 8 7 5 4 5 5 5 4 2 2 3 3 3 3 1 0 0 0 0 0 0 0 0
21 21 20 19 14 8 5 7 10 11 11 10 8 7 4 2 2 4 5 5 5 6 6 5 5 5 6 5 3 2 2 3 3 3 2 1 0 0 0 0 0 0 0
27 26 24 23 19 10 4 3 4 7 9 9 9 8 4 2 3 5 5 4 3 3 3 3 4 5 6 6 4 3 3 4 4 3 3 2 1 0 0 0 0 0 0
30 29 26 25 21 13 4 1 2 4 7 8 9 9 7 5 5 5 6 5 4 2 1 1 2 3 4 4 5 5 5 5 5 4 3 3 2 1 0 0 0 0 0
31 31 29 27 23 14 4 0 1 4 5 6 7 8 8 6 4 4 5 7 7 5 2 0 0 1 1 2 3 5 6 5 4 3 3 3 3 2 1 0 0 0 0
32 31 30 29 24 14 4 1 1 4 5 4 5 7 7 6 4 2 4 8 9 7 4 1 0 0 0 0 2 4 5 5 4 3 3 3 3 2 1 0 0 0 0

GEFSMA_con_prob3kmehi_240.txt.gz
EHI
0 0 0 0 0 0 0 0 0 0 0 0 0 0 0 0 0 0 1 5 8 6 4 6 7 6 4 2 1 1 2 1 0 0 0 0 0 0 0 0 0 0 0
0 0 0 0 0 0 0 0 0 0 0 0 0 0 0 0 0 1 1 4 6 7 7 10 10 9 7 5 3 3 4 3 1 1 0 0 0 0 0 0 0 0 0
0 0 0 0 0 0 0 0 0 0 0 0 0 0 0 0 1 2 2 2 3 4 8 11 12 11 10 7 5 5 5 4 3 2 1 0 0 0 0 0 0 0 0
0 0 0 0 0 0 0 0 0 0 0 0 0 0 0 0 1 1 1 0 0 1 4 8 11 11 10 9 8 7 5 4 3 3 1 0 0 0 0 0 0 0 0
0 0 0 0 0 0 0 0 0 0 0 0 0 0 0 0 0 0 0 0 0 0 1 4 7 8 9 9 9 8 6 5 4 4 3 2 1 0 0 0 0 0 0
0 0 0 0 0 0 0 0 0 0 0 0 0 0 0 0 0 0 0 0 0 0 0 1 2 4 6 9 10 9 8 6 5 5 5 4 3 2 1 0 0 0 0
1 1 0 0 0 0 0 0 0 0 0 0 0 0 0 0 0 0 0 0 0 0 0 0 0 1 3 5 8 10 8 6 5 5 5 4 4 3 2 1 0 0 0
3 3 1 0 0 0 0 0 0 0 0 0 0 0 0 0 0 0 0 0 0 0 0 0 0 0 1 2 4 7 8 7 6 6 4 3 3 3 3 2 1 1 0
6 5 3 1 1 0 0 0 0 0 0 0 0 0 0 0 0 0 0 0 0 0 0 0 0 0 1 0 1 3 6 7 7 7 5 3 3 3 3 3 2 2 1
6 6 5 4 2 1 0 0 0 0 0 0 0 0 0 0 0 0 0 0 0 0 0 0 0 0 0 0 1 1 3 5 6 5 3 3 3 2 2 2 3 3 3
6 6 5 5 3 2 1 0 0 0 0 0 0 0 0 0 0 0 0 0 0 0 0 0 0 0 0 0 1 1 1 2 2 2 1 2 2 2 2 2 3 4 4
6 5 4 4 3 3 2 1 0 0 0 0 0 0 0 0 0 0 0 0 0 0 0 0 0 0 0 0 1 1 0 0 0 0 0 1 1 1 1 2 2 3 3
6 6 4 3 3 3 3 2 1 0 0 0 0 0 0 0 0 0 0 0 0 0 0 0 0 0 0 0 0 0 0 0 0 0 0 0 0 0 0 1 1 1 1
7 7 5 4 3 4 4 4 3 1 1 1 1 1 0 0 0 0 0 0 0 0 0 0 0 0 0 0 0 0 0 0 0 0 0 0 0 0 0 0 0 0 0
5 5 5 4 4 5 6 6 5 4 3 3 2 2 1 1 1 0 0 0 0 0 0 0 0 0 0 0 0 0 0 0 0 0 0 0 0 0 0 0 0 0 0
4 4 4 4 4 6 6 6 6 6 5 4 3 3 3 2 2 1 0 0 0 0 0 0 0 0 0 0 0 0 0 0 0 0 0 0 0 0 0 0 0 0 0
3 3 3 4 5 6 6 6 6 6 6 5 3 2 2 2 2 1 0 0 0 0 0 0 0 0 0 0 0 0 0 0 0 0 0 0 0 0 0 0 0 0 0
3 3 4 5 6 6 6 6 6 6 6 4 2 1 1 1 1 1 0 0 0 0 0 0 0 0 0 0 0 0 0 0 0 0 0 0 0 0 0 0 0 0 0
2 2 3 3 4 5 6 6 6 6 4 2 0 0 0 0 0 0 0 0 0 0 0 0 0 0 0 0 0 0 0 0 0 0 0 0 0 0 0 0 0 0 0
1 1 2 2 2 3 4 4 5 5 3 1 0 0 0 0 0 0 0 0 0 0 0 0 0 0 0 0 0 0 0 0 0 0 0 0 0 0 0 0 0 0 0
2 3 3 3 3 3 3 4 4 3 1 0 0 0 0 0 0 0 0 0 0 0 0 0 0 0 0 0 0 0 0 0 0 0 0 0 0 0 0 0 0 0 0
6 6 5 4 3 3 3 3 3 2 1 0 0 0 0 0 0 0 0 0 0 0 0 0 0 0 0 0 0 0 0 0 0 0 0 0 0 0 0 0 0 0 0
9 8 6 4 3 2 1 1 1 1 1 0 0 0 0 1 1 0 0 0 0 0 0 0 0 0 0 0 0 0 0 0 0 0 0 0 0 0 0 0 0 0 0
10 9 6 4 3 2 0 0 0 0 0 0 0 0 0 1 2 1 0 0 0 0 0 0 0 0 0 0 0 0 0 0 0 0 0 0 0 0 0 0 0 0 0
12 10 8 5 3 2 1 0 0 0 0 0 0 0 0 1 1 1 1 1 0 0 0 0 0 0 0 0 0 0 0 0 0 0 0 0 0 0 0 0 0 0 0
14 12 9 6 4 3 2 1 0 0 0 0 0 0 0 0 1 1 1 1 1 0 0 0 0 0 0 0 0 0 0 0 0 0 1 1 1 0 0 0 0 0 0

GEFSMA_con_prob3kmehi_246.txt.gz
EHI
0 0 0 0 0 0 0 0 0 0 0 0 0 0 0 0 0 0 1 3 3 2 2 3 4 3 1 0 0 0 0 0 0 0 0 0 0 0 0 0 0 0 0
0 0 0 0 0 0 0 0 0 0 0 0 0 0 0 0 0 1 2 3 3 2 3 4 4 3 2 1 1 0 0 0 0 0 0 0 0 0 0 0 0 0 0
0 0 0 0 0 0 0 0 0 0 0 0 0 0 0 0 1 2 2 2 2 1 2 3 3 3 3 3 3 2 0 0 0 0 0 0 0 0 0 0 0 0 0
0 0 0 0 0 0 0 0 0 0 0 0 0 0 0 0 1 2 1 1 1 0 0 1 2 2 2 3 4 4 3 2 1 1 1 1 1 1 0 0 0 0 0
0 0 0 0 0 0 0 0 0 0 0 0 0 0 0 0 1 1 0 0 0 0 0 0 1 1 1 1 3 5 6 6 5 3 3 3 2 2 1 0 0 0 0
0 0 0 0 0 0 0 0 0 0 0 0 0 0 0 0 0 0 0 0 0 0 0 0 0 0 0 0 1 3 5 7 7 6 5 4 3 3 1 1 0 0 0
0 0 0 0 0 0 0 0 0 0 0 0 0 0 0 0 0 0 0 0 0 0 0 0 0 0 0 0 0 1 3 4 6 6 5 4 4 3 3 2 1 0 0
0 0 0 0 0 0 0 0 0 0 0 0 0 0 0 0 0 0 0 0 0 0 0 0 0 0 0 0 0 0 1 1 3 3 3 4 4 3 3 3 2 1 0
0 0 0 0 0 0 0 0 0 0 0 0 0 0 0 0 0 0 0 0 0 0 0 0 0 0 0 0 0 0 0 0 1 1 1 1 2 2 2 2 3 2 1
0 0 0 0 0 0 0 0 0 0 0 0 0 0 0 0 0 0 0 0 0 0 0 0 0 0 0 0 0 0 0 0 0 1 0 0 0 0 0 1 2 1 0
1 1 1 1 0 0 0 0 0 0 0 0 0 0 0 0 0 0 0 0 0 0 0 0 0 0 0 0 0 0 0 0 0 0 0 0 0 0 0 0 0 0 0
1 2 3 2 1 1 0 0 0 0 0 0 0 0 0 0 0 0 0 0 0 0 0 0 0 0 0 0 0 0 0 0 0 0 0 0 0 0 0 0 0 0 0
1 2 3 3 3 2 1 0 0 0 0 0 0 0 0 0 0 0 0 0 0 0 0 0 0 0 0 0 0 0 0 0 0 0 0 0 0 0 0 0 0 0 0
1 2 3 3 3 3 2 1 1 0 0 1 0 0 0 0 0 0 0 0 0 0 0 0 0 0 0 0 0 0 0 0 0 0 0 0 0 0 0 0 0 0 0
2 3 3 3 3 3 3 3 2 1 1 1 0 0 0 0 0 0 0 0 0 1 1 0 0 0 0 0 0 0 0 0 0 0 0 0 0 0 0 0 0 0 0
3 3 3 3 3 3 3 3 3 3 2 2 1 0 0 0 0 0 0 0 0 1 1 0 0 0 0 0 0 0 0 0 0 0 0 0 0 0 0 0 0 0 0
3 3 3 3 3 3 3 3 3 3 3 3 2 1 0 0 0 0 0 0 0 0 0 0 0 0 0 0 0 0 0 0 0 0 0 0 0 0 0 0 0 0 0
3 3 3 3 3 3 3 3 3 3 3 4 4 3 1 0 0 0 0 0 0 0 0 0 0 0 0 0 0 0 0 0 0 0 0 0 0 0 0 0 0 0 0
3 3 3 3 3 3 3 3 3 3 4 5 6 4 1 0 0 0 0 0 0 0 0 0 0 0 0 0 0 0 0 0 0 0 0 0 0 0 0 0 0 0 0
3 3 2 2 3 3 3 2 3 3 4 6 6 4 1 0 0 0 0 0 0 0 0 0 0 0 0 0 0 0 0 0 0 0 0 0 0 0 0 0 0 0 0
2 1 1 1 1 2 1 1 1 3 5 6 5 3 1 0 0 0 0 0 0 0 0 0 0 0 0 0 0 0 0 0 0 0 0 0 0 0 0 0 0 0 0
2 1 1 0 0 0 0 0 1 2 4 4 4 2 0 0 0 0 0 0 0 0 0 0 0 0 0 0 0 0 0 0 0 0 0 0 0 0 0 0 0 0 0
4 3 3 1 0 0 0 0 0 1 2 3 3 2 1 0 0 0 0 0 0 0 0 0 0 0 0 0 0 0 0 0 0 0 0 0 0 0 0 0 0 0 0
7 7 5 3 2 0 0 0 0 0 1 1 1 2 1 0 0 0 0 1 1 0 0 0 0 0 0 0 0 0 0 0 0 0 0 0 0 0 0 0 0 0 0
11 10 8 6 4 2 1 0 0 0 0 0 0 1 1 0 0 0 1 2 2 1 1 0 0 0 0 0 0 0 0 0 0 0 0 0 0 0 0 0 0 0 0
13 12 10 7 6 4 2 1 0 0 0 0 0 0 0 0 0 0 1 2 3 2 2 1 0 0 0 0 0 0 0 0 0 0 0 0 0 0 0 0 0 0 0

GEFSMA_con_prob3kmehi_252.txt.gz
EHI
2 2 3 3 2 1 0 0 0 0 0 0 0 0 0 0 0 0 1 5 8 6 4 3 3 4 4 2 1 0 0 0 0 0 0 0 0 0 0 0 0 0 0
3 3 3 3 2 1 0 0 0 0 0 0 0 0 0 0 0 0 1 5 7 6 4 2 2 3 3 1 0 1 1 1 0 0 0 0 0 0 0 0 0 0 0
3 3 3 2 2 1 0 0 0 0 0 0 0 0 0 0 0 1 2 4 5 4 3 2 1 1 1 0 0 2 3 3 2 1 0 0 0 0 0 0 0 0 0
1 1 1 1 1 0 0 0 0 0 0 0 0 0 0 0 0 1 2 3 2 1 2 3 2 1 0 0 0 1 3 3 3 2 1 1 1 1 0 0 0 0 0
0 0 0 0 0 0 0 0 0 0 0 0 0 0 0 1 0 1 1 1 1 1 2 3 3 1 0 0 0 0 1 1 2 3 3 2 2 2 1 0 0 0 0
0 0 0 0 0 0 0 0 0 0 0 0 0 0 0 0 0 0 0 0 0 0 1 2 2 2 2 1 0 0 0 0 1 2 2 1 2 3 2 1 1 0 0
0 0 0 0 0 0 0 0 0 0 0 0 0 0 0 0 0 0 0 0 0 0 0 1 1 2 2 1 0 0 0 0 1 1 1 1 2 3 3 3 2 1 0
0 0 0 0 0 0 0 0 0 0 0 0 0 0 0 0 0 0 0 0 0 0 0 0 1 1 1 1 0 0 0 0 1 1 0 0 1 2 3 3 3 2 1
1 1 1 1 0 1 1 0 0 0 0 0 0 0 0 0 0 1 0 0 0 0 0 0 0 0 0 0 0 1 1 1 0 0 0 0 0 1 2 2 3 3 3
3 3 3 2 2 3 3 2 1 1 1 1 0 1 1 1 1 1 0 0 0 0 0 0 0 0 1 1 1 1 2 1 0 0 0 0 0 0 1 1 2 2 3
5 5 4 3 4 5 5 4 4 4 4 2 2 3 4 3 3 2 1 1 0 1 2 1 0 1 2 2 2 2 3 2 1 0 0 0 0 0 1 1 1 1 2
6 6 5 4 4 4 4 5 5 5 4 3 4 5 6 5 4 4 3 1 1 2 4 4 2 2 3 3 2 3 3 2 1 0 0 0 0 0 1 2 2 1 1
7 7 6 5 4 3 3 4 4 4 3 4 5 5 4 3 4 4 2 1 0 1 3 4 4 3 3 3 3 3 3 2 1 0 0 0 0 0 1 2 2 2 2
8 8 7 6 4 3 3 3 3 3 3 4 4 3 2 1 1 1 1 0 0 0 1 2 4 4 4 4 3 3 3 1 0 0 0 0 0 0 0 1 1 1 1
7 8 7 6 4 3 3 3 3 3 3 3 3 3 2 1 1 0 0 0 1 1 1 1 2 4 5 5 3 3 3 1 0 0 0 0 0 0 0 0 0 0 0
7 7 7 6 4 3 3 3 4 4 4 4 3 3 3 3 2 1 0 1 2 3 3 1 1 3 6 5 3 3 3 2 1 0 0 0 0 0 0 0 0 0 0
6 6 6 6 4 3 3 4 4 4 4 4 4 3 4 5 5 4 2 2 3 4 4 2 1 3 6 6 4 3 3 2 2 1 0 0 0 0 0 0 0 0 0
9 8 7 6 5 4 5 5 5 5 4 4 4 4 6 8 8 7 6 5 4 5 4 2 1 3 7 7 5 4 3 2 1 1 0 0 0 0 0 0 0 0 0
13 11 9 8 7 7 8 8 8 6 5 5 6 7 8 9 9 9 8 5 4 4 3 2 2 5 7 7 6 3 1 0 0 0 0 0 0 0 0 0 0 0 0
14 13 11 11 9 9 9 10 10 9 8 9 10 10 11 11 11 10 8 6 4 4 3 2 3 5 6 6 4 2 0 0 0 0 0 0 0 0 0 0 0 0 0
13 13 13 13 11 9 8 9 9 9 11 12 13 14 14 12 10 8 6 5 5 4 4 3 3 5 5 5 3 2 1 2 1 1 1 1 0 0 0 0 0 0 0
14 15 16 17 15 12 9 7 6 8 12 14 15 16 15 12 8 5 3 2 2 3 4 4 4 6 6 5 4 3 3 4 3 3 2 1 1 1 0 1 0 0 0
18 20 22 22 20 15 9 4 4 7 12 15 16 16 16 13 10 7 3 2 1 2 3 4 4 6 7 7 7 6 5 6 6 5 4 3 3 1 0 0 0 0 0
23 25 25 24 22 16 8 3 3 8 14 16 15 15 15 15 12 10 7 5 4 3 2 3 3 4 5 7 8 8 6 6 6 6 6 6 5 2 1 1 0 0 0
24 25 25 24 23 18 10 2 3 10 16 17 15 14 13 13 11 8 7 7 6 5 3 2 1 1 2 3 6 7 6 5 4 5 6 6 6 5 4 3 1 1 0
23 23 23 24 23 21 13 3 3 10 16 17 16 13 10 9 7 5 6 7 6 6 4 2 1 0 0 1 3 5 6 5 4 4 5 5 6 8 7 5 3 2 1

GEFSMA_con_prob3kmehi_258.txt.gz
EHI
4 6 8 7 3 2 3 5 3 1 1 1 2 1 2 2 2 2 5 10 14 15 16 16 14 11 9 7 6 4 4 4 4 5 4 1 0 0 0 0 0 0 0
6 6 6 4 2 1 2 3 3 2 2 2 3 3 2 3 4 5 7 10 13 15 16 15 13 10 8 7 5 4 4 4 4 4 3 1 0 0 0 0 0 0 0
5 5 4 2 2 1 1 2 2 3 4 4 5 5 3 4 6 7 8 10 11 12 13 13 13 11 8 7 5 4 3 4 4 3 3 1 0 0 0 0 0 0 0
3 4 3 2 2 2 2 4 4 3 5 5 6 6 5 5 6 6 8 10 10 8 8 10 12 11 8 6 5 4 3 3 3 3 2 1 0 0 0 0 0 0 0
3 4 4 3 3 3 4 5 5 5 6 6 5 5 5 6 6 7 8 10 11 9 6 7 9 10 8 6 5 4 3 2 3 2 1 1 1 0 1 1 1 0 0
4 4 4 4 4 5 5 5 6 6 7 7 5 5 5 7 9 10 10 10 11 11 10 10 11 10 8 7 7 6 4 3 3 2 1 1 1 1 2 2 2 1 1
6 6 6 5 6 6 5 4 5 5 6 7 7 6 6 7 10 11 11 10 10 11 12 14 15 14 12 10 9 9 7 5 5 3 1 1 1 1 3 3 3 3 2
9 9 10 9 7 6 5 4 4 3 3 3 5 6 6 5 7 9 12 12 10 10 11 12 16 19 18 14 10 9 9 8 6 4 1 0 0 1 2 3 3 3 3
12 13 14 12 8 6 5 5 4 3 1 1 2 3 4 3 4 6 10 12 12 10 8 8 13 20 21 18 14 11 10 10 8 5 3 1 1 1 2 3 3 2 2
16 15 14 13 9 5 5 5 5 5 4 3 2 2 3 4 4 5 7 10 11 10 7 6 9 15 20 21 20 15 11 10 9 7 5 4 3 2 3 3 2 1 1
18 16 13 12 9 5 4 5 6 7 7 6 5 4 4 5 5 4 3 6 8 7 6 6 8 12 18 20 19 17 13 10 8 7 6 6 5 5 5 4 2 0 0
19 17 15 14 12 8 5 5 6 7 7 7 6 5 5 4 4 3 2 2 4 6 6 7 8 10 14 16 15 14 13 10 7 5 5 6 7 7 6 5 3 1 1
20 20 20 20 17 12 8 6 6 5 5 5 5 4 4 3 3 3 3 2 2 5 8 8 8 9 11 13 12 10 10 8 5 3 3 4 5 5 5 5 4 3 2
22 24 27 26 21 14 9 7 6 5 5 5 4 3 3 3 3 3 3 2 2 4 8 10 9 9 12 13 9 6 6 5 2 1 1 2 2 2 3 3 3 3 2
24 29 31 28 22 15 10 9 7 5 6 6 5 4 4 3 3 3 3 4 3 3 6 9 10 11 13 12 7 4 5 3 1 0 0 1 1 1 1 1 1 1 1
27 30 29 26 23 19 16 13 9 7 8 8 6 6 7 6 4 3 4 5 6 6 7 8 9 11 12 10 6 5 6 3 1 0 0 0 0 0 0 0 0 0 0
27 28 27 24 24 24 23 19 12 9 10 10 8 8 11 11 8 6 7 8 9 10 10 10 10 12 15 12 8 6 6 3 1 0 0 0 0 0 0 0 0 0 0
25 26 25 25 25 27 26 22 17 14 13 14 12 12 15 16 13 13 13 12 12 13 13 13 13 15 18 16 11 9 6 3 1 0 0 0 0 0 0 0 0 0 0
26 26 26 27 27 26 25 23 21 18 18 19 18 16 16 16 17 18 18 16 15 14 14 14 15 16 17 16 13 11 9 6 2 0 0 0 0 0 0 0 0 0 0
26 26 28 30 29 26 24 24 25 24 23 23 24 22 17 15 16 17 18 18 16 16 16 15 13 14 15 15 13 12 12 10 5 1 0 0 0 0 0 0 0 0 0
26 27 29 32 31 25 21 22 25 27 27 27 29 28 22 17 15 14 14 14 15 16 18 16 12 11 13 14 13 12 12 12 9 5 2 1 1 0 0 0 0 0 0
30 30 31 33 32 24 15 14 19 25 28 30 31 31 26 19 15 13 11 9 9 12 14 13 10 9 11 13 13 10 9 10 10 8 6 4 2 1 1 1 0 0 0
35 34 34 35 31 23 12 7 12 21 28 31 32 31 26 19 15 15 12 8 7 7 7 6 7 7 9 11 11 8 6 7 8 8 8 6 3 2 2 2 1 0 0
38 36 34 32 29 21 11 5 7 15 25 30 31 31 28 21 16 15 13 11 10 7 3 2 2 3 5 8 8 6 5 5 5 6 7 6 5 3 3 2 1 0 0
38 36 32 29 26 20 11 5 4 11 21 26 28 28 26 21 15 12 13 13 12 10 5 1 0 1 2 3 3 4 6 6 5 5 6 7 6 5 4 2 1 0 0
36 34 31 28 25 20 12 5 4 11 20 24 26 25 21 17 12 10 12 13 12 11 6 2 1 0 0 0 1 3 6 6 6 6 6 7 7 6 4 2 1 0 0

GEFSMA_con_prob3kmehi_264.txt.gz
EHI
0 0 0 0 0 0 0 0 0 0 0 0 0 0 0 0 0 0 1 3 5 6 9 11 11 10 7 4 2 1 0 1 2 3 2 2 1 0 0 0 0 0 0
0 0 0 0 0 0 0 0 0 0 0 0 0 0 0 0 0 1 2 3 3 6 10 11 10 7 5 4 3 2 1 0 1 2 1 1 0 0 0 0 0 0 0
0 0 0 0 0 0 0 0 0 0 0 0 0 0 0 0 0 1 2 2 2 4 8 10 9 6 4 3 3 3 1 0 0 0 0 0 0 0 0 0 0 0 0
0 0 0 0 0 0 0 0 0 0 0 0 0 0 0 0 1 2 2 1 1 1 4 6 7 6 4 3 3 4 3 1 0 0 1 2 1 0 0 0 0 0 0
0 0 0 0 0 0 0 0 0 0 0 0 0 0 0 0 1 2 1 1 0 0 1 3 5 5 5 4 4 4 3 2 1 1 2 2 1 0 0 0 0 0 0
0 0 0 0 0 0 0 0 0 0 0 0 0 0 0 0 1 1 0 0 0 0 0 1 3 3 4 5 5 4 3 3 3 2 2 1 1 1 0 0 0 0 0
0 1 1 1 0 0 0 0 0 0 0 0 0 0 0 0 0 0 0 0 0 0 0 0 1 1 2 4 5 6 5 5 4 3 3 2 1 1 0 0 0 0 0
1 2 2 2 1 0 0 0 0 0 0 0 0 0 0 0 0 0 0 0 0 0 0 0 0 0 0 2 3 6 8 7 5 4 4 3 2 1 0 0 0 0 0
1 2 3 3 2 1 0 0 0 0 0 0 0 0 0 0 0 0 0 0 0 0 0 0 1 0 0 0 1 4 6 7 6 5 6 5 3 1 0 0 0 0 0
1 2 3 3 3 1 0 0 0 0 0 0 0 0 0 0 0 0 0 0 0 0 0 0 0 0 0 0 1 2 2 3 5 6 8 7 4 1 0 0 0 0 0
1 3 4 3 3 2 1 0 0 0 0 0 0 0 0 0 0 0 0 0 0 0 0 0 0 0 0 0 1 2 2 2 2 5 7 7 5 2 0 0 0 0 0
3 5 5 4 4 3 1 0 0 0 0 0 0 0 0 0 0 0 0 0 0 0 0 0 0 0 0 0 1 2 3 2 1 2 4 5 4 2 0 0 0 0 0
5 6 7 6 5 4 1 0 0 0 0 0 0 0 0 0 0 0 0 0 0 0 0 0 0 0 0 0 0 1 3 3 1 0 1 3 2 1 0 0 0 1 2
6 7 8 8 7 6 3 1 1 1 1 0 0 0 0 0 0 0 0 0 0 0 0 0 0 0 0 0 0 1 2 2 1 0 0 1 1 0 0 0 1 2 3
5 5 7 9 9 7 4 3 2 2 2 1 1 1 1 1 1 0 0 0 0 0 0 0 0 0 0 0 0 1 2 2 1 0 0 0 0 0 0 0 0 1 2
2 3 6 8 9 8 5 3 3 3 3 3 2 2 2 2 2 1 1 0 0 0 0 0 0 0 0 0 0 0 1 1 0 0 0 0 0 0 0 0 0 0 0
2 3 5 7 8 7 6 4 3 3 3 3 3 3 3 3 3 3 2 1 0 0 0 0 0 0 0 0 0 0 0 0 0 0 0 0 0 0 0 0 0 0 0
4 3 4 6 7 6 6 5 4 3 3 3 3 3 3 3 3 3 3 1 0 0 1 1 1 0 0 0 0 0 0 0 0 0 0 0 0 0 0 0 0 0 0
5 4 4 5 6 5 4 4 3 3 3 3 3 3 3 3 3 3 3 2 2 1 2 2 2 1 0 0 0 0 0 0 0 0 0 0 0 0 0 0 0 0 0
7 6 6 6 5 4 3 2 2 3 3 3 3 3 3 4 4 4 4 4 4 4 3 3 2 1 0 0 0 0 0 0 0 0 0 0 0 0 0 0 0 0 0
12 11 10 8 7 5 3 2 2 2 3 3 3 3 4 5 6 6 6 6 6 5 4 3 3 1 0 0 0 0 0 0 0 0 0 0 0 0 0 0 0 0 0
16 15 13 11 10 7 4 3 3 3 3 2 2 3 5 6 6 6 6 6 6 5 4 3 3 2 1 1 1 0 0 0 0 0 0 0 0 0 0 0 0 0 0
15 14 12 11 10 7 5 5 4 4 4 3 3 4 6 7 6 6 6 6 5 4 3 2 2 1 0 1 1 1 1 1 0 0 0 0 0 0 0 0 0 0 0
14 12 10 9 8 7 5 4 4 4 4 4 4 4 6 7 7 6 6 6 6 4 2 1 1 0 0 0 1 1 2 1 0 0 0 0 0 0 0 0 0 0 0
16 13 10 9 8 8 6 4 2 3 4 4 3 4 5 7 6 5 5 6 5 3 1 0 0 0 0 0 0 1 1 1 1 0 0 0 0 0 0 0 0 0 0
18 14 10 10 10 9 7 4 2 2 3 3 3 4 5 6 5 3 4 4 4 3 1 0 0 0 0 0 0 0 1 2 1 0 0 0 0 0 0 0 0 0 0

GEFSMA_con_prob3kmehi_270.txt.gz
EHI
0 0 0 0 0 0 0 0 0 0 0 0 0 0 0 0 0 0 0 0 1 0 0 1 3 4 5 5 6 5 4 3 2 1 0 0 0 0 0 0 0 0 0
0 0 0 0 0 0 0 0 0 0 0 0 0 0 0 0 0 0 0 0 1 1 1 1 3 3 3 4 5 4 3 2 2 1 0 0 0 0 0 0 0 0 0
0 0 0 0 0 0 0 0 0 0 0 0 0 0 0 0 0 0 0 0 0 1 1 2 2 1 1 2 3 3 1 1 1 0 0 1 1 1 0 0 0 0 0
0 0 0 0 0 0 0 0 0 0 0 0 0 0 0 0 0 0 0 0 0 0 1 2 1 1 1 1 2 2 1 0 0 0 0 1 1 1 0 0 0 0 0
0 0 0 0 0 0 0 0 0 0 0 0 0 0 0 0 0 0 0 0 0 0 0 0 0 1 1 1 1 1 0 0 0 0 0 0 0 0 0 0 0 0 0
0 0 0 0 0 0 0 0 0 0 0 0 0 0 0 0 0 0 0 0 0 0 0 0 0 0 0 0 0 0 0 0 0 1 1 1 0 0 0 0 0 0 0
0 0 0 0 0 0 0 0 0 0 0 0 0 0 0 0 0 0 0 0 0 0 0 0 0 0 0 0 0 0 0 0 0 2 2 2 0 0 0 0 0 0 0
0 0 0 0 1 1 0 0 0 0 0 0 0 0 0 0 0 0 0 0 0 0 0 0 0 0 0 0 0 0 1 0 0 2 4 3 1 1 1 1 0 0 0
0 0 0 1 2 2 1 0 0 0 0 0 0 0 0 0 0 0 0 0 0 0 0 0 0 0 0 0 0 0 0 0 0 2 4 4 3 3 2 1 0 0 0
0 0 1 2 3 3 2 1 0 0 0 0 0 0 0 0 0 0 0 0 0 0 0 0 0 0 0 0 0 0 0 0 0 0 2 4 4 4 3 1 0 0 0
0 0 1 2 3 3 3 1 0 0 0 0 0 0 0 0 0 0 0 0 0 0 0 0 0 0 0 0 0 0 0 0 0 0 1 3 4 4 4 2 1 0 0
0 0 1 2 3 3 3 2 1 0 0 0 0 0 0 0 0 0 0 0 0 0 0 0 0 0 0 0 0 0 0 0 0 0 1 2 3 4 5 4 1 0 1
0 0 0 1 2 2 3 3 2 1 0 0 0 0 0 0 0 0 0 0 0 0 0 0 0 0 0 0 0 0 0 0 0 0 1 2 3 4 4 4 1 0 1
1 1 0 0 1 1 1 2 2 1 0 0 0 0 0 0 0 0 0 0 0 0 0 0 0 0 0 0 0 0 0 0 0 0 0 1 2 2 3 2 1 0 1
2 2 1 0 0 0 0 1 1 1 0 0 0 0 0 0 0 0 0 0 0 0 0 0 0 0 0 0 0 0 0 0 0 0 0 0 1 1 1 1 0 0 0
4 3 2 1 1 1 1 1 0 0 0 0 0 0 0 0 0 0 0 0 0 0 0 0 0 0 0 0 0 0 0 0 0 0 0 0 0 0 0 0 0 0 0
5 4 3 3 2 2 2 2 1 1 0 0 0 0 0 0 0 0 0 0 0 0 0 0 0 0 0 0 0 0 0 0 0 0 0 0 0 0 0 0 0 0 0
7 6 4 3 3 3 3 4 3 2 1 1 1 1 0 1 1 0 0 0 0 0 0 0 0 0 0 0 0 0 0 0 0 0 0 0 0 0 0 0 0 0 0
8 8 6 4 4 3 4 5 5 3 3 2 2 2 2 2 2 1 1 1 0 0 0 0 1 1 1 1 1 0 0 0 0 0 0 0 0 0 0 0 0 0 0
7 7 7 5 4 3 3 4 3 3 2 2 2 2 2 2 2 2 2 2 1 1 1 1 2 2 2 2 2 1 0 0 0 0 0 0 0 0 0 0 0 0 0
6 6 6 5 4 3 2 1 1 1 1 1 1 1 1 1 1 1 2 3 3 3 3 3 4 3 3 3 2 1 0 0 0 0 0 0 0 0 0 0 0 0 0
6 5 5 5 4 3 1 0 0 0 0 1 1 2 2 1 1 2 2 2 3 4 5 6 6 5 4 4 3 1 0 0 0 0 0 0 0 0 0 0 0 0 0
6 5 5 5 4 3 1 0 0 0 0 1 2 3 4 4 4 4 3 2 2 2 3 6 7 6 6 6 5 3 1 0 0 0 0 0 0 0 0 0 0 0 0
7 6 5 5 5 3 1 0 0 0 0 1 2 4 5 6 6 5 3 3 2 2 2 3 5 5 5 5 5 4 2 0 0 0 0 0 0 0 0 0 0 0 0
9 8 6 6 7 5 1 0 0 1 1 2 3 5 6 5 4 3 2 2 1 1 1 1 1 2 2 2 2 2 1 0 0 0 0 0 0 0 0 0 0 0 0
10 9 8 8 7 5 2 0 1 2 3 4 5 6 5 4 3 1 1 2 1 0 0 0 0 0 0 0 0 1 0 0 0 0 0 0 0 0 0 0 0 0 0